Weather History for KBHB - December, 2012

Change the Weather History Date:

Monday, December 31, 2012

  Actual Average Record
Temperature  
Mean Temperature 22 °F -  
Max Temperature 32 °F 31 °F 51 °F (1965)
Min Temperature 12 °F 16 °F -9 °F (1956)
Degree Days  
Heating Degree Days 43    
Moisture  
Dew Point 15 °F    
Average Humidity 75    
Maximum Humidity 93    
Minimum Humidity 59    
Precipitation  
Precipitation 0.00 in - - ()
Sea Level Pressure  
Sea Level Pressure 29.75 in    
Wind  
Wind Speed 10 mph (WNW)    
Max Wind Speed 18 mph    
Max Gust Speed 30 mph    
Visibility 10 miles    
Events      
Averages and records for this station are not official NWS values.
T = Trace of Precipitation, MM = Missing Value Source: NWS Daily Summary

Daily Weather History Graph

Daily Weather History Graph

Search for Another Location

Airport or City:

Trip Planner

Search our weather history database for the weather conditions in past years. The results will help you decide how hot, cold, wet, or windy it might be!

Date:

Astronomy

Dec. 31, 2012 Rise Set
Actual Time 7:09 AM EST 4:03 PM EST
Civil Twilight 6:36 AM EST 4:37 PM EST
Nautical Twilight 5:59 AM EST 5:13 PM EST
Astronomical Twilight 5:24 AM EST 5:49 PM EST
Moon 7:39 PM EST (12/31) 8:41 AM EST (12/31)
Length of Visible Light 10h 00m
Length of Day
8h 54m
Waning Gibbous, 90% of the Moon is Illuminated
Dec 31
Waning Gibbous
Jan 4
Last Quarter
Jan 11
New
Jan 18
First Quarter
Jan 26
Full

Hourly Weather History & Observations

Time (EST) Temp. Windchill Dew Point Humidity Pressure Visibility Wind Dir Wind Speed Gust Speed Precip Events Conditions
12:15 AM 12.2 °F -3.1 °F 6.8 °F 79% 29.66 in 10.0 mi WNW 13.8 mph 18.4 mph N/A   Clear
12:35 AM 12.2 °F 0.7 °F 6.8 °F 79% 29.68 in 10.0 mi WNW 8.1 mph 17.3 mph N/A   Clear
12:55 AM 12.2 °F -3.7 °F 6.8 °F 79% 29.68 in 10.0 mi WNW 15.0 mph 23.0 mph N/A   Clear
1:15 AM 12.2 °F -1.8 °F 6.8 °F 79% 29.68 in 10.0 mi West 11.5 mph 16.1 mph N/A   Clear
1:55 AM 12.2 °F 4.3 °F 6.8 °F 79% 29.70 in 10.0 mi NW 4.6 mph - N/A   Clear
2:35 AM 12.2 °F -1.8 °F 6.8 °F 79% 29.71 in 10.0 mi WNW 11.5 mph 23.0 mph N/A   Clear
2:55 AM 12.2 °F -1.0 °F 6.8 °F 79% 29.72 in 10.0 mi WNW 10.4 mph 23.0 mph N/A   Clear
3:15 AM 12.2 °F -1.8 °F 6.8 °F 79% 29.73 in 10.0 mi WNW 11.5 mph 19.6 mph N/A   Clear
3:35 AM 12.2 °F -3.7 °F 6.8 °F 79% 29.73 in 10.0 mi WNW 15.0 mph 27.6 mph N/A   Clear
3:55 AM 12.2 °F -3.7 °F 6.8 °F 79% 29.72 in 10.0 mi WNW 15.0 mph 25.3 mph N/A   Clear
4:15 AM 12.2 °F -2.5 °F 6.8 °F 79% 29.73 in 10.0 mi WNW 12.7 mph 21.9 mph N/A   Clear
4:35 AM 12.2 °F -5.3 °F 6.8 °F 79% 29.73 in 10.0 mi NW 18.4 mph 29.9 mph N/A   Clear
4:55 AM 14.0 °F -3.0 °F 6.8 °F 73% 29.73 in 9.0 mi NW 18.4 mph 25.3 mph N/A   Clear
5:15 AM 14.0 °F -2.0 °F 6.8 °F 73% 29.73 in 10.0 mi NW 16.1 mph 24.2 mph N/A   Clear
5:35 AM 14.0 °F 1.2 °F 6.8 °F 73% 29.74 in 10.0 mi WNW 10.4 mph 25.3 mph N/A   Clear
5:55 AM 14.0 °F -2.0 °F 8.6 °F 79% 29.73 in 7.0 mi WNW 16.1 mph 28.8 mph N/A   Clear
6:15 AM 15.8 °F 1.4 °F 6.8 °F 68% 29.76 in 9.0 mi WNW 13.8 mph 27.6 mph N/A   Clear
6:35 AM 14.0 °F 3.9 °F 8.6 °F 79% 29.77 in 10.0 mi NW 6.9 mph 16.1 mph N/A   Clear
6:55 AM 14.0 °F 2.9 °F 8.6 °F 79% 29.77 in 10.0 mi WNW 8.1 mph - N/A   Clear
7:15 AM 12.2 °F 1.7 °F 8.6 °F 85% 29.77 in 10.0 mi WNW 6.9 mph - N/A   Clear
7:35 AM 14.0 °F 2.0 °F 8.6 °F 79% 29.78 in 10.0 mi WNW 9.2 mph 17.3 mph N/A   Clear
7:55 AM 17.6 °F 5.0 °F 8.6 °F 68% 29.79 in 10.0 mi WNW 11.5 mph 21.9 mph N/A   Clear
8:15 AM 17.6 °F 3.2 °F 10.4 °F 73% 29.80 in 10.0 mi West 15.0 mph 20.7 mph N/A   Clear
8:35 AM 17.6 °F 5.7 °F 10.4 °F 73% 29.81 in 10.0 mi West 10.4 mph 19.6 mph N/A   Clear
8:55 AM 17.6 °F 6.4 °F 10.4 °F 73% 29.81 in 10.0 mi West 9.2 mph 23.0 mph N/A   Clear
9:15 AM 19.4 °F 7.9 °F 12.2 °F 74% 29.81 in 10.0 mi WNW 10.4 mph 19.6 mph N/A   Clear
9:36 AM 21.2 °F 8.9 °F 12.2 °F 68% 29.81 in 10.0 mi WNW 12.7 mph 24.2 mph N/A   Clear
9:55 AM 23.0 °F 12.4 °F 12.2 °F 63% 29.82 in 10.0 mi WNW 10.4 mph 19.6 mph N/A   Clear
10:15 AM 24.8 °F 14.6 °F 14.0 °F 64% 29.82 in 10.0 mi West 10.4 mph 20.7 mph N/A   Clear
10:35 AM 24.8 °F 14.0 °F 15.8 °F 69% 29.81 in 10.0 mi West 11.5 mph - N/A   Clear
10:55 AM 26.6 °F 18.2 °F 15.8 °F 64% 29.81 in 10.0 mi West 8.1 mph 16.1 mph N/A   Clear
11:16 AM 28.4 °F 17.5 °F 15.8 °F 59% 29.80 in 10.0 mi West 13.8 mph 23.0 mph N/A   Clear
11:35 AM 28.4 °F 18.0 °F 15.8 °F 59% 29.80 in 10.0 mi West 12.7 mph 20.7 mph N/A   Clear
11:55 AM 28.4 °F 18.0 °F 15.8 °F 59% 29.79 in 10.0 mi West 12.7 mph 20.7 mph N/A   Clear
12:15 PM 28.4 °F 18.0 °F 15.8 °F 59% 29.79 in 10.0 mi WNW 12.7 mph 20.7 mph N/A   Clear
12:35 PM 30.2 °F 20.8 °F 17.6 °F 60% 29.78 in 10.0 mi NW 11.5 mph 19.6 mph N/A   Clear
12:55 PM 30.2 °F 21.3 °F 17.6 °F 60% 29.78 in 10.0 mi NW 10.4 mph 17.3 mph N/A   Clear
1:35 PM 30.2 °F 21.9 °F 17.6 °F 60% 29.77 in 10.0 mi WNW 9.2 mph 18.4 mph N/A   Clear
1:55 PM 30.2 °F 21.9 °F 19.4 °F 64% 29.77 in 10.0 mi WNW 9.2 mph 20.7 mph N/A   Clear
2:15 PM 32.0 °F 27.5 °F 19.4 °F 60% 29.77 in 10.0 mi West 4.6 mph - N/A   Clear
2:55 PM 30.2 °F 25.4 °F 19.4 °F 64% 29.78 in 10.0 mi WNW 4.6 mph - N/A   Clear
3:15 PM 30.2 °F 23.4 °F 19.4 °F 64% 29.78 in 10.0 mi WNW 6.9 mph - N/A   Clear
3:35 PM 30.2 °F 25.4 °F 19.4 °F 64% 29.77 in 10.0 mi WNW 4.6 mph - N/A   Clear
3:55 PM 28.4 °F 24.6 °F 19.4 °F 69% 29.78 in 10.0 mi West 3.5 mph - N/A   Clear
4:15 PM 26.6 °F - 19.4 °F 74% 29.78 in 10.0 mi Calm Calm - N/A   Clear
4:35 PM 26.6 °F 22.6 °F 17.6 °F 69% 29.78 in 10.0 mi SW 3.5 mph - N/A   Clear
4:56 PM 24.8 °F 20.5 °F 19.4 °F 80% 29.78 in 10.0 mi SW 3.5 mph - N/A   Clear
5:15 PM 24.8 °F 19.1 °F 19.4 °F 80% 29.78 in 10.0 mi SSW 4.6 mph - N/A   Clear
5:35 PM 24.8 °F 19.1 °F 19.4 °F 80% 29.78 in 10.0 mi West 4.6 mph - N/A   Clear
5:55 PM 24.8 °F - 19.4 °F 80% 29.78 in 10.0 mi Calm Calm - N/A   Clear
6:15 PM 23.0 °F - 17.6 °F 80% 29.77 in 10.0 mi Calm Calm - N/A   Clear
6:35 PM 21.2 °F - 17.6 °F 86% 29.77 in 10.0 mi Calm Calm - N/A   Mostly Cloudy
7:15 PM 24.8 °F 20.5 °F 21.2 °F 86% 29.77 in 10.0 mi SW 3.5 mph - N/A   Overcast
7:35 PM 24.8 °F - 21.2 °F 86% 29.76 in 10.0 mi Calm Calm - N/A   Overcast
7:55 PM 26.6 °F - 23.0 °F 86% 29.76 in 10.0 mi Calm Calm - N/A   Overcast
8:15 PM 26.6 °F - 23.0 °F 86% 29.76 in 10.0 mi Calm Calm - N/A   Overcast
8:35 PM 26.6 °F - 21.2 °F 80% 29.75 in 10.0 mi Calm Calm - N/A   Overcast
8:55 PM 26.6 °F - 21.2 °F 80% 29.75 in 10.0 mi Calm Calm - N/A   Overcast
9:15 PM 24.8 °F - 21.2 °F 86% 29.73 in 10.0 mi Calm Calm - N/A   Mostly Cloudy
9:35 PM 24.8 °F - 21.2 °F 86% 29.72 in 10.0 mi Calm Calm - N/A   Overcast
9:55 PM 24.8 °F - 21.2 °F 86% 29.72 in 10.0 mi Calm Calm - N/A   Overcast
10:15 PM 26.6 °F - 23.0 °F 86% 29.72 in 10.0 mi Calm Calm - N/A   Overcast
10:35 PM 26.6 °F - 24.8 °F 93% 29.71 in 10.0 mi Calm Calm - N/A   Overcast
10:55 PM 28.4 °F - 24.8 °F 86% 29.69 in 10.0 mi Calm Calm - N/A   Overcast
11:15 PM 28.4 °F 23.3 °F 24.8 °F 86% 29.67 in 10.0 mi SW 4.6 mph - N/A   Overcast
11:35 PM 28.4 °F - 24.8 °F 86% 29.66 in 10.0 mi Calm Calm - N/A   Overcast
11:55 PM 28.4 °F 23.3 °F 24.8 °F 86% 29.65 in 10.0 mi WSW 4.6 mph - N/A   Overcast